• In Slovakia
  • List of Countries
  • For 7 days
  • Water Temperature
  • Satellite Maps
  • Weather Map
  • Weather Widgets
  • user-avatar
    Login

    Hourly Weather Prutz

    Today, 19 November, Sunday

    Time Temperature Precipitation Wind Pressure Humidity
    00:00 -7°C° 0 mm 2 mps 630 mmHg 72%
    01:00 -7°C° 0 mm 2 mps 630 mmHg 69%
    02:00 -6°C° 0 mm 2 mps 630 mmHg 69%
    03:00 -6°C° 0 mm 2 mps 630 mmHg 68%
    04:00 -5°C° 0 mm 2 mps 629 mmHg 68%
    05:00 -5°C° 0.7 mm 2 mps 629 mmHg 75%
    06:00 -5°C° 0.7 mm 2 mps 629 mmHg 82%
    07:00 -5°C° 0.7 mm 2 mps 629 mmHg 89%
    08:00 -4°C° 1.1 mm 2 mps 629 mmHg 90%
    09:00 -3°C° 1.1 mm 2 mps 629 mmHg 91%
    10:00 -3°C° 1.1 mm 2 mps 630 mmHg 92%
    11:00 -2°C° 0.5 mm 3 mps 630 mmHg 90%
    12:00 -2°C° 0.5 mm 3 mps 630 mmHg 88%
    13:00 -2°C° 0.5 mm 3 mps 630 mmHg 86%
    14:00 -4°C° 0.4 mm 3 mps 630 mmHg 87%
    15:00 -4°C° 0.4 mm 3 mps 630 mmHg 89%
    16:00 -5°C° 0.4 mm 3 mps 630 mmHg 90%
    17:00 -4°C° 0.3 mm 2 mps 630 mmHg 91%
    18:00 -4°C° 0.3 mm 2 mps 631 mmHg 92%
    19:00 -5°C° 0.3 mm 2 mps 631 mmHg 93%
    20:00 -5°C° 0.2 mm 2 mps 631 mmHg 93%
    21:00 -6°C° 0.2 mm 2 mps 632 mmHg 93%
    22:00 -6°C° 0.2 mm 2 mps 632 mmHg 93%
    23:00 -7°C° 0.1 mm 2 mps 632 mmHg 93%

    Tomorrow, 20 November, Monday

    Time Temperature Precipitation Wind Pressure Humidity
    00:00 -7°C° 0.1 mm 2 mps 632 mmHg 93%
    01:00 -8°C° 0.1 mm 2 mps 632 mmHg 93%
    02:00 -8°C° 0 mm 2 mps 632 mmHg 92%
    03:00 -9°C° 0 mm 2 mps 632 mmHg 91%
    04:00 -10°C° 0 mm 2 mps 632 mmHg 90%
    05:00 -10°C° 0 mm 2 mps 632 mmHg 86%
    06:00 -10°C° 0 mm 2 mps 632 mmHg 82%
    07:00 -10°C° 0 mm 2 mps 632 mmHg 78%
    08:00 -7°C° 0 mm 2 mps 633 mmHg 75%
    09:00 -5°C° 0 mm 2 mps 634 mmHg 71%
    10:00 -3°C° 0 mm 2 mps 634 mmHg 68%
    11:00 -2°C° 0 mm 2 mps 634 mmHg 68%
    12:00 +2°C° 0 mm 1 mps 634 mmHg 68%
    13:00 +3°C° 0 mm 1 mps 634 mmHg 69%
    14:00 +2°C° 0.1 mm 1 mps 634 mmHg 73%
    15:00 -1°C° 0.1 mm 2 mps 633 mmHg 77%
    16:00 -1°C° 0.1 mm 2 mps 633 mmHg 81%
    17:00 -2°C° 0.1 mm 2 mps 633 mmHg 81%
    18:00 -2°C° 0.1 mm 2 mps 632 mmHg 82%
    19:00 -3°C° 0.1 mm 2 mps 632 mmHg 82%
    20:00 -3°C° 0 mm 2 mps 632 mmHg 82%
    21:00 -3°C° 0 mm 2 mps 632 mmHg 82%
    22:00 -3°C° 0 mm 2 mps 632 mmHg 81%
    23:00 -3°C° 0 mm 2 mps 632 mmHg 81%

    Day after tomorrow, 21 November, Tuesday

    Time Temperature Precipitation Wind Pressure Humidity
    00:00 -3°C° 0 mm 2 mps 632 mmHg 80%
    01:00 -3°C° 0 mm 2 mps 632 mmHg 79%
    02:00 -3°C° 0 mm 2 mps 632 mmHg 79%
    03:00 -3°C° 0 mm 2 mps 632 mmHg 79%
    04:00 -3°C° 0 mm 2 mps 632 mmHg 79%
    05:00 -3°C° 0.1 mm 2 mps 632 mmHg 79%
    06:00 -3°C° 0.1 mm 2 mps 632 mmHg 80%
    07:00 -3°C° 0.1 mm 2 mps 632 mmHg 80%
    08:00 -2°C° 0 mm 2 mps 632 mmHg 81%
    09:00 +1°C° 0 mm 2 mps 633 mmHg 82%
    10:00 +2°C° 0 mm 2 mps 633 mmHg 82%
    11:00 +3°C° 0 mm 2 mps 633 mmHg 84%
    12:00 +4°C° 0 mm 2 mps 633 mmHg 86%
    13:00 +4°C° 0 mm 2 mps 633 mmHg 88%
    14:00 +4°C° 0 mm 2 mps 633 mmHg 87%
    15:00 +4°C° 0 mm 1 mps 633 mmHg 86%
    16:00 +3°C° 0 mm 1 mps 632 mmHg 85%
    17:00 +2°C° 0 mm 1 mps 632 mmHg 84%
    18:00 +1°C° 0 mm 2 mps 632 mmHg 83%
    19:00 -1°C° 0 mm 2 mps 632 mmHg 82%
    20:00 -1°C° 0 mm 2 mps 632 mmHg 81%
    21:00 -1°C° 0 mm 2 mps 632 mmHg 80%
    22:00 -1°C° 0 mm 2 mps 632 mmHg 79%
    23:00 -1°C° 0 mm 2 mps 632 mmHg 77%

    22 November, Wednesday

    Time Temperature Precipitation Wind Pressure Humidity
    00:00 -1°C° 0 mm 2 mps 632 mmHg 76%
    01:00 -1°C° 0 mm 2 mps 632 mmHg 74%
    02:00 -1°C° 0 mm 2 mps 632 mmHg 73%
    03:00 -2°C° 0 mm 2 mps 632 mmHg 73%
    04:00 -2°C° 0 mm 2 mps 632 mmHg 72%
    05:00 -2°C° 0 mm 2 mps 632 mmHg 70%
    06:00 -2°C° 0 mm 2 mps 632 mmHg 69%
    07:00 -2°C° 0 mm 2 mps 632 mmHg 68%
    08:00 +1°C° 0 mm 2 mps 632 mmHg 69%
    09:00 +2°C° 0 mm 2 mps 633 mmHg 70%
    10:00 +4°C° 0 mm 2 mps 634 mmHg 72%
    11:00 +6°C° 0 mm 1 mps 634 mmHg 76%
    12:00 +7°C° 0 mm 1 mps 634 mmHg 80%
    13:00 +8°C° 0 mm 1 mps 633 mmHg 85%
    14:00 +6°C° 0 mm 1 mps 633 mmHg 82%
    15:00 +4°C° 0 mm 2 mps 632 mmHg 79%
    16:00 +3°C° 0 mm 2 mps 632 mmHg 77%
    17:00 +2°C° 0 mm 2 mps 632 mmHg 76%
    18:00 +1°C° 0 mm 2 mps 632 mmHg 75%
    19:00 -1°C° 0 mm 3 mps 632 mmHg 74%
    20:00 -1°C° 0 mm 3 mps 632 mmHg 74%
    21:00 -1°C° 0 mm 3 mps 632 mmHg 73%
    22:00 -1°C° 0 mm 3 mps 632 mmHg 72%
    23:00 -1°C° 0 mm 3 mps 632 mmHg 72%

    23 November, Thursday

    Time Temperature Precipitation Wind Pressure Humidity
    00:00 -1°C° 0 mm 3 mps 632 mmHg 71%
    01:00 -2°C° 0 mm 3 mps 632 mmHg 71%
    02:00 -2°C° 0 mm 3 mps 632 mmHg 70%
    03:00 -2°C° 0 mm 3 mps 632 mmHg 70%
    04:00 -2°C° 0 mm 3 mps 632 mmHg 69%
    05:00 -2°C° 0 mm 3 mps 632 mmHg 68%
    06:00 -2°C° 0 mm 3 mps 632 mmHg 67%
    07:00 -2°C° 0 mm 3 mps 633 mmHg 66%
    08:00 +1°C° 0 mm 2 mps 633 mmHg 67%
    09:00 +2°C° 0 mm 2 mps 634 mmHg 68%
    10:00 +4°C° 0 mm 2 mps 635 mmHg 69%
    11:00 +5°C° 0 mm 2 mps 635 mmHg 73%
    12:00 +6°C° 0 mm 2 mps 635 mmHg 78%
    13:00 +8°C° 0 mm 1 mps 635 mmHg 82%
    14:00 +7°C° 0 mm 1 mps 635 mmHg 80%
    15:00 +5°C° 0 mm 1 mps 635 mmHg 77%
    16:00 +4°C° 0 mm 1 mps 634 mmHg 75%
    17:00 +2°C° 0 mm 2 mps 635 mmHg 75%
    18:00 +1°C° 0 mm 2 mps 635 mmHg 74%
    19:00 -1°C° 0 mm 2 mps 635 mmHg 73%
    20:00 -1°C° 0 mm 2 mps 635 mmHg 71%
    21:00 -1°C° 0 mm 2 mps 635 mmHg 70%
    22:00 -1°C° 0 mm 2 mps 635 mmHg 68%
    23:00 -1°C° 0 mm 2 mps 635 mmHg 68%

    24 November, Friday

    Time Temperature Precipitation Wind Pressure Humidity
    00:00 -1°C° 0 mm 2 mps 635 mmHg 67%
    01:00 -1°C° 0 mm 2 mps 635 mmHg 66%
    02:00 -1°C° 0 mm 2 mps 635 mmHg 67%
    03:00 -1°C° 0 mm 2 mps 635 mmHg 67%
    04:00 -2°C° 0 mm 2 mps 635 mmHg 68%
    05:00 -2°C° 0 mm 2 mps 635 mmHg 68%
    06:00 -2°C° 0 mm 2 mps 635 mmHg 69%
    07:00 -2°C° 0 mm 2 mps 635 mmHg 69%
    08:00 +1°C° 0 mm 2 mps 636 mmHg 70%
    09:00 +2°C° 0 mm 2 mps 636 mmHg 71%
    10:00 +3°C° 0 mm 2 mps 636 mmHg 71%
    11:00 +4°C° 0 mm 2 mps 636 mmHg 73%
    12:00 +5°C° 0 mm 2 mps 636 mmHg 75%
    13:00 +6°C° 0 mm 2 mps 636 mmHg 77%
    14:00 +5°C° 0 mm 2 mps 636 mmHg 77%
    15:00 +4°C° 0 mm 2 mps 635 mmHg 76%
    16:00 +3°C° 0 mm 2 mps 635 mmHg 75%
    17:00 +3°C° 0 mm 2 mps 635 mmHg 74%
    18:00 +2°C° 0 mm 2 mps 635 mmHg 73%
    19:00 +1°C° 0 mm 2 mps 635 mmHg 71%
    20:00 +1°C° 0 mm 2 mps 635 mmHg 70%
    21:00 -1°C° 0 mm 2 mps 635 mmHg 68%
    22:00 -1°C° 0 mm 2 mps 635 mmHg 67%
    23:00 -1°C° 0 mm 2 mps 635 mmHg 66%
    Show more